Stündliche Wetter Labushne

Heute, 11 Mai, Dienstag

Zeit Temperatur Niederschläge Wind Luftdruck Luftfeuchtigkeit
00:00 +9°C° 0 mm 2 m/S 745 mmHg 68%
01:00 +8°C° 0 mm 2 m/S 745 mmHg 68%
02:00 +8°C° 0 mm 2 m/S 745 mmHg 67%
03:00 +8°C° 0 mm 2 m/S 745 mmHg 67%
04:00 +7°C° 0 mm 2 m/S 745 mmHg 68%
05:00 +8°C° 0 mm 1 m/S 745 mmHg 68%
06:00 +9°C° 0 mm 2 m/S 745 mmHg 64%
07:00 +11°C° 0 mm 3 m/S 745 mmHg 60%
08:00 +13°C° 0 mm 3 m/S 745 mmHg 57%
09:00 +14°C° 0 mm 3 m/S 744 mmHg 54%
10:00 +16°C° 0 mm 3 m/S 744 mmHg 51%
11:00 +18°C° 0 mm 3 m/S 744 mmHg 48%
12:00 +19°C° 0 mm 3 m/S 743 mmHg 49%
13:00 +20°C° 0 mm 3 m/S 743 mmHg 50%
14:00 +20°C° 0 mm 3 m/S 743 mmHg 51%
15:00 +20°C° 0 mm 4 m/S 742 mmHg 54%
16:00 +20°C° 0 mm 4 m/S 742 mmHg 56%
17:00 +20°C° 0 mm 4 m/S 742 mmHg 58%
18:00 +19°C° 0 mm 4 m/S 741 mmHg 65%
19:00 +17°C° 0 mm 3 m/S 741 mmHg 73%
20:00 +14°C° 0 mm 3 m/S 741 mmHg 80%
21:00 +14°C° 0 mm 3 m/S 741 mmHg 82%
22:00 +14°C° 0 mm 3 m/S 741 mmHg 84%
23:00 +13°C° 0 mm 3 m/S 740 mmHg 86%

Morgen, 12 Mai, Mittwoch

Zeit Temperatur Niederschläge Wind Luftdruck Luftfeuchtigkeit
00:00 +12°C° 0 mm 3 m/S 740 mmHg 89%
01:00 +11°C° 0 mm 3 m/S 740 mmHg 93%
02:00 +10°C° 0 mm 3 m/S 740 mmHg 96%
03:00 +10°C° 0 mm 3 m/S 740 mmHg 92%
04:00 +10°C° 0 mm 4 m/S 740 mmHg 87%
05:00 +9°C° 0 mm 5 m/S 740 mmHg 83%
06:00 +9°C° 0 mm 5 m/S 740 mmHg 79%
07:00 +9°C° 0 mm 5 m/S 740 mmHg 74%
08:00 +9°C° 0 mm 5 m/S 740 mmHg 70%
09:00 +10°C° 0 mm 5 m/S 740 mmHg 65%
10:00 +12°C° 0 mm 5 m/S 739 mmHg 60%
11:00 +14°C° 0 mm 5 m/S 739 mmHg 55%
12:00 +14°C° 0 mm 5 m/S 739 mmHg 55%
13:00 +14°C° 0 mm 5 m/S 739 mmHg 54%
14:00 +14°C° 0 mm 5 m/S 739 mmHg 53%
15:00 +13°C° 0 mm 5 m/S 739 mmHg 55%
16:00 +13°C° 0 mm 4 m/S 739 mmHg 57%
17:00 +12°C° 0 mm 4 m/S 738 mmHg 59%
18:00 +11°C° 0 mm 4 m/S 738 mmHg 62%
19:00 +10°C° 0 mm 3 m/S 738 mmHg 65%
20:00 +10°C° 0 mm 3 m/S 738 mmHg 68%
21:00 +9°C° 0 mm 2 m/S 738 mmHg 72%
22:00 +8°C° 0 mm 2 m/S 738 mmHg 77%
23:00 +7°C° 0 mm 2 m/S 737 mmHg 82%

übermorgen, 13 Mai, Donnerstag

Zeit Temperatur Niederschläge Wind Luftdruck Luftfeuchtigkeit
00:00 +7°C° 0 mm 2 m/S 737 mmHg 83%
01:00 +6°C° 0 mm 2 m/S 737 mmHg 84%
02:00 +6°C° 0 mm 2 m/S 737 mmHg 85%
03:00 +6°C° 0.6 mm 2 m/S 737 mmHg 88%
04:00 +7°C° 0.6 mm 2 m/S 736 mmHg 90%
05:00 +7°C° 0.6 mm 2 m/S 736 mmHg 93%
06:00 +7°C° 0.5 mm 3 m/S 736 mmHg 93%
07:00 +8°C° 0.5 mm 3 m/S 736 mmHg 92%
08:00 +7°C° 0.5 mm 4 m/S 736 mmHg 92%
09:00 +9°C° 0 mm 5 m/S 736 mmHg 85%
10:00 +10°C° 0 mm 6 m/S 736 mmHg 78%
11:00 +12°C° 0 mm 7 m/S 736 mmHg 71%
12:00 +13°C° 0 mm 6 m/S 736 mmHg 73%
13:00 +13°C° 0 mm 6 m/S 736 mmHg 75%
14:00 +14°C° 0 mm 6 m/S 736 mmHg 78%
15:00 +13°C° 0.6 mm 6 m/S 735 mmHg 83%
16:00 +12°C° 0.6 mm 5 m/S 735 mmHg 88%
17:00 +12°C° 0.6 mm 5 m/S 735 mmHg 94%
18:00 +12°C° 0.1 mm 5 m/S 735 mmHg 92%
19:00 +12°C° 0.1 mm 4 m/S 735 mmHg 90%
20:00 +12°C° 0.1 mm 4 m/S 735 mmHg 89%
21:00 +11°C° 0 mm 4 m/S 735 mmHg 88%
22:00 +10°C° 0 mm 3 m/S 735 mmHg 88%
23:00 +10°C° 0 mm 3 m/S 735 mmHg 88%

14 Mai, Freitag

Zeit Temperatur Niederschläge Wind Luftdruck Luftfeuchtigkeit
00:00 +9°C° 0 mm 3 m/S 734 mmHg 88%
01:00 +9°C° 0 mm 2 m/S 734 mmHg 88%
02:00 +8°C° 0 mm 2 m/S 734 mmHg 88%
03:00 +8°C° 0 mm 2 m/S 734 mmHg 88%
04:00 +8°C° 0 mm 2 m/S 734 mmHg 88%
05:00 +8°C° 0 mm 2 m/S 734 mmHg 88%
06:00 +9°C° 0 mm 2 m/S 734 mmHg 85%
07:00 +12°C° 0 mm 2 m/S 734 mmHg 82%
08:00 +13°C° 0 mm 2 m/S 734 mmHg 79%
09:00 +13°C° 0.3 mm 2 m/S 734 mmHg 83%
10:00 +13°C° 0.3 mm 2 m/S 735 mmHg 87%
11:00 +13°C° 0.3 mm 2 m/S 735 mmHg 91%
12:00 +14°C° 0.1 mm 2 m/S 735 mmHg 84%
13:00 +15°C° 0.1 mm 2 m/S 735 mmHg 78%
14:00 +17°C° 0.1 mm 3 m/S 735 mmHg 71%
15:00 +17°C° 0 mm 3 m/S 735 mmHg 69%
16:00 +18°C° 0 mm 3 m/S 735 mmHg 66%
17:00 +19°C° 0 mm 3 m/S 735 mmHg 64%
18:00 +17°C° 0.1 mm 2 m/S 735 mmHg 70%
19:00 +16°C° 0.1 mm 2 m/S 735 mmHg 76%
20:00 +14°C° 0.1 mm 1 m/S 735 mmHg 82%
21:00 +14°C° 0.4 mm 1 m/S 735 mmHg 84%
22:00 +12°C° 0.4 mm 0 m/S 736 mmHg 86%
23:00 +12°C° 0.4 mm 0 m/S 736 mmHg 87%

15 Mai, Samstag

Zeit Temperatur Niederschläge Wind Luftdruck Luftfeuchtigkeit
00:00 +11°C° 0.4 mm 0 m/S 736 mmHg 88%
01:00 +12°C° 0.4 mm 1 m/S 736 mmHg 89%
02:00 +12°C° 0.4 mm 1 m/S 736 mmHg 90%
03:00 +12°C° 0.1 mm 1 m/S 736 mmHg 90%
04:00 +12°C° 0.1 mm 1 m/S 736 mmHg 90%
05:00 +11°C° 0.1 mm 1 m/S 736 mmHg 90%
06:00 +13°C° 0 mm 2 m/S 737 mmHg 85%
07:00 +15°C° 0 mm 2 m/S 737 mmHg 80%
08:00 +16°C° 0 mm 2 m/S 737 mmHg 76%
09:00 +17°C° 0 mm 2 m/S 737 mmHg 71%
10:00 +19°C° 0 mm 2 m/S 737 mmHg 67%
11:00 +20°C° 0 mm 2 m/S 737 mmHg 62%
12:00 +20°C° 0.5 mm 2 m/S 737 mmHg 60%
13:00 +21°C° 0.5 mm 2 m/S 737 mmHg 57%
14:00 +23°C° 0.5 mm 2 m/S 737 mmHg 54%
15:00 +23°C° 0 mm 2 m/S 737 mmHg 54%
16:00 +23°C° 0 mm 1 m/S 736 mmHg 53%
17:00 +23°C° 0 mm 1 m/S 736 mmHg 53%
18:00 +21°C° 0 mm 1 m/S 736 mmHg 58%
19:00 +20°C° 0 mm 1 m/S 736 mmHg 62%
20:00 +18°C° 0 mm 1 m/S 736 mmHg 66%
21:00 +17°C° 0 mm 2 m/S 736 mmHg 70%
22:00 +16°C° 0 mm 2 m/S 736 mmHg 74%
23:00 +15°C° 0 mm 2 m/S 736 mmHg 78%

16 Mai, Sonntag

Zeit Temperatur Niederschläge Wind Luftdruck Luftfeuchtigkeit
00:00 +15°C° 0 mm 2 m/S 736 mmHg 80%
01:00 +14°C° 0 mm 2 m/S 736 mmHg 81%
02:00 +13°C° 0 mm 2 m/S 736 mmHg 83%
03:00 +13°C° 0 mm 2 m/S 736 mmHg 83%
04:00 +13°C° 0 mm 2 m/S 736 mmHg 84%
05:00 +13°C° 0 mm 2 m/S 736 mmHg 85%
06:00 +14°C° 0 mm 2 m/S 736 mmHg 81%
07:00 +16°C° 0 mm 2 m/S 736 mmHg 76%
08:00 +17°C° 0 mm 2 m/S 736 mmHg 72%
09:00 +18°C° 0 mm 3 m/S 736 mmHg 67%
10:00 +19°C° 0 mm 3 m/S 736 mmHg 63%
11:00 +21°C° 0 mm 4 m/S 736 mmHg 58%
12:00 +22°C° 0 mm 4 m/S 736 mmHg 55%
13:00 +22°C° 0 mm 4 m/S 736 mmHg 52%
14:00 +23°C° 0 mm 5 m/S 735 mmHg 49%
15:00 +23°C° 0 mm 4 m/S 735 mmHg 52%
16:00 +24°C° 0 mm 3 m/S 735 mmHg 56%
17:00 +24°C° 0 mm 3 m/S 734 mmHg 59%
18:00 +21°C° 0 mm 3 m/S 734 mmHg 63%
19:00 +20°C° 0 mm 3 m/S 734 mmHg 66%
20:00 +19°C° 0 mm 3 m/S 734 mmHg 70%
21:00 +18°C° 0 mm 3 m/S 734 mmHg 72%
22:00 +18°C° 0 mm 3 m/S 733 mmHg 75%
23:00 +17°C° 0 mm 3 m/S 733 mmHg 78%
Mehr zeigen

Wir brauchen deine Erlaubnis

Meteoprog und unser Service Anbieter werden persönliche Daten aufbewahren, so wie Cookies, Geräte Bezeichnung oder ähnliche Technologien von deinem Gerät und Prozess, so wie Persönliche Daten Inhalte und Werbungen, genauso wie social Media und den Verkehr zu analysieren.

  • Aufbewahrung und/oder Zugang zu deiner Geräte Informationen.

    Cookies, Geräte Bezeichnung oder andere Informationen, können aufbewahrt oder Zugang zu deinem Gerät erhalten, für den Grund, der oben angegeben wird.

  • Personalisierte Werbung und Inhalte, Messungen, Einblick in das Publikum und Produkt Entwicklung.

    Werbungen und Inhalte können personalisiert werden, basierend auf ein Profil. Mehr Daten können besser personalisierte Werbungen und Inhalte hinzufügen. Werbung und Inhalte können gezeigt und gemessen werden. Einblicke über das Publikum, welche die Werbung gesehen haben und den Inhalt, können abgeleitet werden. So wie Daten können genutzt werden, um es zu verbessern oder die Benutzer Erfahrung zu verbessern das System und die Software.

Wenn du “Ich stimme zu” klickst, erlaubst du uns, die Cookies zu benutzen die Geräte Bezeichnung, den Web oder ähnliche Technologien zu benutzen. Deine Settings, können in deinem Gerät bei deinem Browser geändert werden.

Für den bestimmten Zweck, berechtigten Interessen beruhen darauf, mehr als auf den Inhalt. Du kannst mehr darüber in unseren Privaten und Cookie Politik lesen.